Home > Weather > Tampere > Past weeks

Flag for Finland Past Weather in Tampere, Finland — Yesterday and Last 2 Weeks

Now
64 °F

Light rain. Overcast.


Feels Like: 64 °F
Forecast: 60 / 76 °F
Wind: 3 mph from North

Location: Tampere / Pirkkala

Current Time: Jul 23, 2016 at 12:23:44 PM

Latest Report: Jul 23, 2016 at 11:50 AM


Visibility: 4 mi

Pressure: 30.12 "Hg

Humidity: 88%

Dew Point: 61 °F

Location of TampereLocation

Past Weather in Tampere — Graph

°F

Tampere Temperature Yesterday

Maximum temperature yesterday: 66 °F (at 6:20 PM)
Minimum temperature yesterday: 59 °F (at 2:50 AM)
Average temperature yesterday: 62 °F

High & Low Weather Summary for the Past Weeks

 TemperatureHumidityPressure
High72 °F (Jul 20, 6:50 PM)100% (Jul 11, 2:20 AM)30.12 "Hg (Jul 11, 2:20 AM)
Low43 °F (Jul 10, 2:50 AM)35% (Jul 19, 5:20 PM)29.42 "Hg (Jul 12, 5:20 AM)
Average61 °F77%29.80 "Hg
* Reported Jul 8 10:20 AM — Jul 23 10:50 AM, Tampere, Weather by CustomWeather, © 2016

Note: Actual official high and low records may vary slightly from our data, if they occured in-between our weather recording intervals... More about our weather records

Advertising

Tampere Weather History for the Previous 24 Hours

Scroll right to see more
 ConditionsComfort  
Time TempWeatherWind HumidityBarometerVisibility
10:50 AM
Sat, Jul 23
64 °FPartly sunny.3 mph88%30.12 "HgN/A
10:20 AM64 °FPartly sunny.5 mph88%30.12 "HgN/A
9:50 AM64 °FOvercast.3 mph88%30.12 "HgN/A
9:20 AM64 °FPartly sunny.5 mph83%30.12 "HgN/A
8:50 AM64 °FMostly cloudy.3 mph88%30.12 "HgN/A
8:20 AM63 °FOvercast.3 mph88%30.12 "HgN/A
7:50 AM63 °FOvercast.2 mph94%30.12 "HgN/A
7:20 AM63 °FMostly cloudy.2 mph88%30.12 "HgN/A
6:50 AM63 °FOvercast.1 mph88%30.12 "HgN/A
6:20 AM63 °FBroken clouds.2 mph88%30.12 "HgN/A
5:50 AM63 °FOvercast.1 mph88%30.12 "HgN/A
5:20 AM61 °FPassing clouds.2 mph94%30.09 "HgN/A
4:50 AM61 °FOvercast.1 mph94%30.12 "HgN/A
4:20 AM63 °FOvercast.3 mph88%30.09 "HgN/A
3:50 AM61 °FPassing clouds.3 mph94%30.12 "HgN/A
3:20 AM63 °FOvercast.No wind88%30.12 "HgN/A
2:50 AM63 °FMostly cloudy.5 mph88%30.12 "HgN/A
2:20 AM63 °FOvercast.2 mph88%30.12 "HgN/A
1:50 AM63 °FMostly cloudy.3 mph88%30.12 "HgN/A
1:20 AM63 °FMostly cloudy.1 mph88%30.12 "HgN/A
12:50 AM63 °FMostly cloudy.No wind88%30.12 "HgN/A
12:20 AM63 °FOvercast.2 mph88%30.12 "HgN/A
11:50 PM
Fri, Jul 22
63 °FOvercast.3 mph88%30.12 "HgN/A
11:20 PM63 °FOvercast.5 mph88%30.12 "HgN/A
10:50 PM63 °FOvercast.5 mph88%30.12 "HgN/A
10:20 PM64 °FOvercast.2 mph83%30.09 "HgN/A
9:50 PM64 °FOvercast.5 mph83%30.09 "HgN/A
9:20 PM64 °FMostly cloudy.7 mph83%30.09 "HgN/A
8:50 PM64 °FMostly cloudy.6 mph83%30.09 "HgN/A
8:20 PM66 °FOvercast.6 mph78%30.09 "HgN/A
7:50 PM66 °FMore clouds than sun.3 mph78%30.09 "HgN/A
7:20 PM66 °FMostly cloudy.3 mph78%30.09 "HgN/A
6:50 PM66 °FMostly cloudy.3 mph78%30.09 "HgN/A
6:20 PM66 °FPartly sunny.3 mph78%30.09 "HgN/A
5:50 PM64 °FPartly sunny.7 mph83%30.09 "HgN/A
5:20 PM64 °FOvercast.6 mph83%30.09 "HgN/A
4:50 PM64 °FOvercast.6 mph83%30.09 "HgN/A
4:20 PM64 °FOvercast.5 mph83%30.09 "HgN/A
3:50 PM64 °FOvercast.6 mph83%30.09 "HgN/A
3:20 PM64 °FMore clouds than sun.6 mph83%30.09 "HgN/A
2:50 PM64 °FMore clouds than sun.6 mph83%30.09 "HgN/A
2:20 PM63 °FMostly cloudy.7 mph88%30.09 "HgN/A
1:50 PM63 °FMostly cloudy.8 mph88%30.09 "HgN/A
1:20 PM63 °FMostly cloudy.6 mph88%30.09 "HgN/A
12:50 PM61 °FMostly cloudy.8 mph88%30.09 "HgN/A
12:20 PM61 °FMore clouds than sun.6 mph88%30.09 "HgN/A
Weather by CustomWeather, © 2016

See weather overviewHow to use our weather pages